Wind_Speed
14 16 20 22 24 26 27 29 30 32 34 36 38 38 40 41 42 43 45 48 50 52 52 53 55 54 54 55 55 56 57 56 55 53 53 54 54 54 55 54 53 53 53
11 11 11 13 15 18 21 23 25 27 30 32 33 35 37 38 39 41 42 45 48 50 51 51 52 54 54 54 55 56 56 56 55 55 55 56 57 56 56 55 55 55 55
11 11 10 10 11 12 14 16 18 21 23 26 28 30 32 34 36 37 39 42 44 46 48 49 51 52 54 54 54 56 57 56 55 55 57 58 58 58 56 56 57 57 56
12 11 11 11 10 10 11 12 14 17 19 21 23 26 28 31 33 35 36 38 40 42 44 46 49 51 52 54 55 56 56 56 57 57 57 58 58 58 58 58 59 58 58
12 12 11 11 10 9 10 11 12 14 16 18 20 22 24 26 29 31 32 34 36 39 42 45 48 51 52 53 54 55 55 56 57 59 59 58 59 59 60 60 60 60 59
13 12 11 11 10 10 11 11 12 14 15 16 17 19 21 24 27 29 30 32 35 37 39 42 44 46 48 50 52 54 55 56 57 59 59 59 60 61 61 61 60 61 60
13 12 12 12 12 11 12 13 13 14 16 18 18 20 22 23 25 27 29 32 34 36 38 40 42 44 46 48 51 53 55 57 59 58 60 60 60 60 61 61 61 62 61
14 13 13 13 14 14 14 14 15 17 18 19 20 21 23 24 26 28 30 32 34 37 39 42 44 47 49 51 52 53 55 58 59 60 60 61 61 61 61 60 61 61 60
16 15 15 15 15 16 17 17 18 19 20 21 22 24 25 27 29 31 33 34 37 39 42 45 47 49 51 53 54 54 55 57 58 58 60 60 61 61 62 62 61 61 61
17 17 18 18 19 19 20 20 22 23 23 24 25 27 29 31 33 34 36 37 39 41 43 46 48 50 51 52 54 56 57 57 58 58 58 59 60 60 61 62 62 61 61
20 20 20 21 21 22 23 24 25 26 27 28 29 31 32 34 35 37 39 40 42 43 45 46 47 49 51 53 54 55 55 56 57 58 59 60 61 61 60 60 61 61 60
23 23 24 24 25 26 27 27 28 29 31 32 33 35 36 37 39 40 42 43 45 46 46 47 49 50 51 52 53 54 55 56 57 59 60 61 61 61 60 59 59 60 59
26 26 27 28 28 29 30 31 32 34 35 35 37 38 40 41 42 44 45 46 47 48 48 48 49 50 51 51 52 53 55 56 57 58 59 60 60 60 60 59 58 57 57
29 30 31 31 32 33 33 35 36 37 38 39 40 41 43 44 45 46 48 48 48 48 48 48 48 49 50 51 52 52 54 55 57 58 58 58 58 58 56 56 56 55 54
32 33 34 34 35 36 37 38 39 40 41 42 43 44 45 46 47 48 49 49 49 48 48 48 49 49 50 51 52 53 54 55 55 55 55 54 54 53 53 52 53 52 52
35 36 37 37 38 39 40 41 42 43 44 45 45 46 47 49 49 50 50 49 49 49 48 48 49 50 50 51 52 53 53 52 52 51 50 50 49 49 48 49 49 49 48
37 38 39 40 40 41 42 43 44 45 46 47 47 48 49 50 50 50 49 49 49 48 48 48 49 49 50 50 50 50 49 48 47 45 44 44 44 44 44 44 44 44 44
38 39 40 41 42 43 44 45 46 46 47 48 49 49 50 50 50 50 49 49 48 48 48 48 48 48 48 48 47 46 44 43 42 40 39 39 39 39 39 40 39 40 39
40 40 41 42 43 45 45 46 47 47 48 48 49 50 50 51 51 50 49 48 48 48 48 47 47 47 46 45 43 42 40 39 37 36 35 35 34 34 35 35 35 34 34
41 41 42 43 44 45 46 47 47 48 48 49 49 49 50 50 50 49 49 48 48 47 46 46 45 44 43 41 39 38 37 35 34 33 32 31 31 30 29 29 29 29 29
42 42 43 44 45 46 46 47 47 48 49 49 50 50 50 50 49 48 47 47 46 46 44 43 42 41 39 37 36 35 34 32 31 30 29 29 28 26 25 25 24 24 24
42 43 44 45 46 47 47 48 48 49 49 49 50 50 50 49 48 47 46 45 44 43 41 40 38 37 36 34 33 32 31 29 28 26 26 25 24 23 22 21 20 19 18
43 44 45 46 47 48 48 48 48 49 49 49 49 48 48 47 46 45 44 42 41 40 38 36 35 34 33 33 31 29 27 25 24 23 22 21 20 19 18 17 16 16 15
44 44 45 46 47 47 48 48 48 47 48 47 46 46 45 44 44 42 41 39 37 36 34 32 32 31 31 29 28 26 24 22 21 19 19 18 17 17 15 14 14 13 13
44 45 45 46 47 47 47 46 46 45 45 44 43 43 42 42 41 39 37 35 34 32 30 29 29 29 28 27 25 24 22 20 19 18 17 16 15 14 13 12 11 11 12
44 44 45 45 45 46 45 44 43 42 41 41 40 40 40 40 38 37 35 33 30 29 28 27 27 26 26 24 23 21 20 18 17 16 14 13 12 11 10 10 9 10 10
Wind_Direction
291 281 273 269 264 261 259 256 255 254 253 253 254 255 255 255 255 254 252 251 252 253 254 255 254 255 259 260 262 263 264 267 268 268 268 269 269 270 271 270 270 269 271
313 305 295 283 275 267 262 259 256 255 256 257 256 257 256 256 257 257 255 254 253 254 254 256 257 258 260 261 262 264 265 266 268 269 269 268 269 270 271 270 270 270 271
328 321 314 305 295 282 272 267 264 263 262 261 260 259 257 258 258 259 258 256 256 255 256 258 259 260 260 261 262 263 264 266 267 269 269 269 270 271 270 270 271 271 271
348 340 329 320 311 300 285 277 274 271 268 268 267 265 263 262 261 261 262 261 259 260 261 260 261 261 261 262 263 264 265 266 267 268 269 270 269 269 270 270 271 271 271
351 350 346 341 331 318 305 295 289 283 279 278 278 275 270 268 266 266 266 265 264 264 264 263 263 263 264 263 264 264 266 267 267 268 269 269 269 270 269 269 269 270 270
351 348 346 343 336 327 320 313 306 299 293 287 285 283 280 277 273 271 271 270 268 266 266 266 267 267 266 267 267 267 267 268 268 269 270 270 271 271 270 269 269 269 269
347 346 343 342 339 331 325 320 313 307 300 295 293 289 285 284 283 280 276 274 272 270 269 270 270 269 269 270 270 269 269 270 269 270 270 270 271 271 271 270 270 269 269
339 340 339 338 337 333 327 323 318 313 306 302 299 296 292 291 290 287 283 279 276 274 273 272 272 271 271 272 272 271 271 271 270 270 270 271 271 271 271 271 272 271 271
331 329 326 325 324 322 320 319 316 315 312 308 306 303 300 297 295 293 290 287 283 280 278 276 275 274 274 274 273 272 272 272 271 271 272 272 272 273 272 272 272 272 272
326 324 322 320 317 315 314 313 311 311 310 309 307 304 301 299 297 295 294 292 289 287 285 282 279 278 277 277 276 275 274 273 272 271 272 272 273 274 274 273 273 272 272
322 320 319 317 316 315 313 312 310 309 309 308 307 305 303 301 299 297 296 294 292 291 289 287 285 283 281 280 279 278 277 275 274 273 272 272 273 274 274 274 274 273 272
314 314 313 312 311 311 310 309 309 308 308 308 308 306 305 303 301 300 299 297 296 294 291 290 289 287 285 284 282 281 279 278 277 275 274 273 273 273 274 274 274 274 273
308 308 308 308 308 307 307 307 307 307 306 306 305 305 304 303 302 301 300 299 297 296 294 292 291 290 288 287 286 284 282 280 279 278 276 275 274 274 274 274 273 274 273
306 306 306 306 306 306 305 305 305 305 305 305 305 305 305 304 303 303 301 300 298 297 295 294 293 292 291 290 289 287 286 284 282 280 278 276 274 273 273 273 272 272 273
305 305 305 305 305 305 305 305 305 305 305 305 306 306 306 306 306 305 304 302 300 298 296 295 295 294 293 293 292 290 289 288 286 283 280 278 275 273 273 272 272 272 271
304 304 304 304 304 304 304 304 304 305 305 305 306 307 307 307 306 306 305 304 302 300 298 297 297 296 295 295 294 293 292 290 287 285 282 279 277 275 273 272 272 272 271
304 304 304 304 304 304 304 304 304 305 305 306 307 307 308 308 307 306 305 305 304 301 300 299 299 298 298 297 296 296 295 292 289 285 282 280 278 276 273 273 272 272 271
304 304 304 304 304 304 305 305 305 305 306 306 307 308 309 308 307 307 306 305 304 303 301 300 300 300 300 299 298 298 296 294 290 287 284 281 279 278 275 274 273 273 272
303 303 303 303 304 305 305 305 305 305 306 307 308 309 309 309 308 307 306 306 305 304 302 301 301 302 301 300 299 299 298 296 293 289 286 283 282 280 278 275 274 273 271
303 303 303 304 305 306 306 305 305 306 307 308 309 310 311 310 309 308 307 306 306 305 304 303 303 303 303 302 300 299 298 297 294 292 289 286 285 283 280 276 274 272 269
303 303 303 304 305 306 306 306 306 307 308 309 310 311 311 312 311 309 308 307 306 306 305 304 303 303 303 303 302 301 299 297 295 293 290 289 286 283 282 280 277 273 268
302 302 303 304 305 306 306 306 307 308 309 310 311 312 312 312 312 311 310 309 308 307 306 305 303 303 304 305 303 302 300 297 296 294 293 291 287 286 284 280 277 273 266
302 303 303 304 306 306 306 306 307 308 309 310 311 312 312 313 313 312 311 310 308 308 307 307 306 305 306 306 305 304 301 299 297 296 295 291 288 288 286 282 277 269 259
302 303 303 305 306 306 306 307 308 309 310 311 312 313 314 314 314 314 313 312 310 309 309 308 308 308 307 307 307 306 304 302 300 298 296 291 288 286 283 279 273 263 254
302 303 304 305 306 307 307 307 308 310 311 312 314 315 315 316 315 315 314 313 312 311 310 310 310 311 311 310 308 306 304 303 301 299 296 292 287 283 279 275 267 258 249
303 304 305 307 308 308 309 309 309 311 312 314 315 316 317 317 317 316 315 314 313 313 312 312 313 313 313 312 310 308 305 303 302 300 297 292 285 280 275 268 261 254 246
Height
5620 5618 5617 5617 5617 5617 5618 5620 5623 5625 5628 5630 5633 5635 5636 5638 5641 5643 5646 5649 5652 5656 5659 5662 5665 5668 5670 5672 5673 5675 5675 5676 5678 5681 5682 5683 5683 5683 5684 5683 5683 5684 5684
5618 5615 5613 5612 5612 5612 5612 5614 5616 5618 5621 5623 5624 5626 5628 5630 5632 5634 5636 5638 5641 5644 5647 5649 5651 5654 5656 5657 5659 5660 5661 5662 5663 5665 5667 5667 5668 5668 5668 5668 5668 5668 5669
5617 5614 5612 5611 5610 5609 5609 5610 5611 5613 5614 5616 5617 5618 5620 5621 5623 5625 5626 5628 5629 5632 5634 5636 5638 5639 5641 5643 5644 5644 5646 5647 5647 5649 5650 5651 5652 5652 5652 5652 5652 5653 5653
5616 5614 5611 5610 5609 5608 5608 5608 5608 5609 5610 5610 5611 5611 5612 5613 5614 5615 5616 5618 5619 5620 5622 5623 5625 5626 5627 5628 5628 5629 5630 5631 5631 5632 5634 5634 5635 5635 5635 5635 5636 5636 5636
5616 5614 5612 5610 5608 5607 5606 5606 5606 5605 5605 5605 5605 5605 5605 5605 5606 5607 5607 5608 5608 5609 5610 5611 5612 5612 5613 5613 5614 5614 5614 5615 5615 5616 5617 5617 5617 5617 5617 5617 5618 5618 5618
5616 5613 5611 5609 5608 5606 5605 5604 5603 5602 5601 5600 5600 5599 5598 5598 5598 5598 5598 5598 5598 5598 5598 5599 5599 5599 5599 5599 5599 5598 5598 5598 5599 5599 5599 5599 5599 5599 5598 5598 5598 5599 5600
5615 5613 5611 5609 5607 5605 5603 5602 5600 5599 5598 5596 5595 5594 5593 5592 5590 5590 5589 5589 5588 5588 5587 5587 5586 5585 5585 5584 5583 5583 5582 5581 5581 5581 5581 5580 5580 5580 5579 5579 5578 5578 5580
5614 5612 5610 5608 5606 5604 5602 5600 5598 5596 5594 5592 5590 5588 5586 5585 5583 5582 5580 5579 5577 5576 5575 5574 5573 5571 5569 5568 5567 5566 5565 5564 5563 5562 5562 5561 5560 5559 5558 5558 5557 5558 5559
5612 5610 5608 5605 5603 5601 5599 5596 5594 5592 5589 5586 5584 5582 5580 5577 5575 5572 5570 5568 5566 5564 5562 5560 5558 5556 5554 5552 5551 5549 5547 5545 5543 5542 5541 5540 5539 5538 5537 5536 5536 5535 5537
5610 5607 5604 5602 5599 5597 5594 5592 5589 5587 5584 5581 5578 5575 5572 5569 5566 5563 5560 5557 5554 5552 5548 5545 5542 5539 5536 5533 5531 5529 5528 5526 5524 5522 5521 5519 5517 5516 5515 5514 5514 5513 5514
5606 5603 5601 5598 5595 5592 5589 5586 5583 5580 5577 5574 5571 5567 5563 5560 5556 5553 5549 5545 5541 5538 5534 5530 5526 5522 5518 5515 5512 5509 5507 5505 5504 5502 5501 5499 5497 5496 5495 5493 5492 5492 5492
5602 5599 5596 5593 5590 5587 5583 5580 5577 5573 5570 5566 5562 5558 5554 5550 5546 5541 5537 5532 5527 5523 5519 5514 5510 5505 5501 5497 5494 5490 5488 5485 5483 5482 5480 5479 5477 5476 5475 5474 5473 5472 5471
5596 5593 5590 5587 5583 5580 5576 5573 5569 5565 5561 5557 5552 5548 5543 5539 5534 5529 5524 5519 5513 5508 5503 5499 5494 5489 5484 5480 5476 5472 5468 5465 5463 5461 5459 5458 5457 5456 5455 5454 5453 5452 5452
5589 5586 5582 5579 5575 5572 5568 5564 5560 5556 5551 5547 5542 5537 5532 5526 5521 5516 5510 5504 5499 5493 5488 5484 5479 5473 5469 5464 5459 5454 5450 5446 5443 5441 5439 5437 5436 5435 5434 5434 5434 5433 5433
5582 5578 5575 5571 5567 5563 5559 5554 5550 5545 5540 5536 5530 5525 5519 5514 5507 5501 5495 5489 5484 5478 5473 5468 5463 5458 5453 5447 5442 5437 5432 5428 5425 5422 5419 5418 5417 5416 5415 5415 5414 5414 5415
5574 5570 5566 5562 5557 5553 5549 5544 5538 5534 5529 5523 5518 5512 5506 5500 5494 5487 5480 5474 5468 5463 5458 5453 5448 5442 5437 5432 5426 5421 5415 5410 5407 5404 5401 5400 5399 5398 5397 5397 5396 5396 5397
5564 5560 5556 5552 5547 5542 5538 5533 5528 5522 5516 5511 5505 5499 5493 5486 5480 5473 5467 5460 5454 5449 5443 5438 5433 5427 5422 5416 5410 5405 5399 5394 5390 5387 5385 5383 5382 5381 5381 5380 5380 5380 5380
5554 5550 5545 5541 5536 5531 5526 5521 5516 5511 5505 5498 5492 5486 5479 5473 5466 5459 5453 5447 5441 5435 5429 5424 5418 5413 5407 5401 5395 5390 5385 5380 5377 5373 5371 5369 5368 5367 5366 5366 5365 5365 5365
5543 5539 5534 5529 5524 5519 5514 5509 5503 5498 5492 5486 5480 5473 5466 5459 5452 5446 5439 5433 5427 5421 5416 5410 5404 5399 5393 5387 5382 5377 5372 5368 5365 5361 5359 5357 5355 5354 5353 5352 5352 5351 5351
5532 5527 5523 5518 5513 5507 5502 5496 5491 5485 5479 5473 5467 5460 5453 5446 5439 5432 5426 5420 5414 5408 5402 5396 5391 5385 5380 5374 5369 5365 5361 5357 5354 5351 5348 5346 5344 5343 5342 5341 5341 5340 5340
5521 5516 5511 5506 5501 5495 5490 5484 5478 5472 5466 5460 5453 5447 5440 5433 5426 5420 5413 5407 5401 5395 5389 5384 5378 5373 5368 5363 5359 5354 5350 5347 5344 5341 5338 5336 5335 5334 5333 5332 5331 5331 5331
5509 5504 5499 5494 5489 5483 5477 5472 5466 5459 5453 5447 5440 5433 5427 5420 5413 5406 5400 5394 5388 5382 5377 5372 5367 5362 5357 5353 5349 5345 5341 5338 5335 5332 5330 5328 5326 5325 5324 5324 5323 5323 5324
5497 5492 5487 5482 5477 5471 5465 5459 5453 5447 5440 5434 5427 5421 5414 5407 5401 5394 5388 5382 5376 5371 5366 5361 5357 5352 5348 5344 5340 5336 5333 5330 5327 5325 5323 5321 5320 5319 5318 5317 5317 5317 5318
5486 5481 5475 5470 5464 5458 5452 5446 5440 5434 5428 5421 5415 5409 5402 5396 5390 5383 5377 5371 5366 5361 5356 5352 5348 5344 5339 5335 5332 5328 5325 5323 5320 5318 5317 5315 5314 5313 5313 5312 5312 5313 5314
5474 5469 5463 5458 5452 5446 5440 5434 5428 5422 5416 5410 5404 5398 5392 5385 5379 5373 5367 5362 5357 5352 5348 5344 5340 5336 5332 5328 5325 5322 5319 5317 5314 5313 5311 5310 5309 5308 5308 5308 5308 5309 5310
5462 5457 5452 5446 5440 5434 5429 5423 5417 5411 5406 5400 5394 5388 5382 5376 5370 5364 5359 5354 5349 5345 5341 5337 5333 5329 5325 5322 5319 5316 5313 5311 5309 5308 5307 5306 5305 5305 5304 5305 5305 5306 5307